This demonstration page uses our WeatherBlox Daily Observations layout. Learn more.

Left ArrowRight Arrow

41.86663, -103.66717

Hourly Observations for June 17, 2020

Temp ( °F °C ) Dew Point ( °F °C ) Humidity (%) Winds ( mph kmh ) Pressure ( in mb ) Visibility ( mi km ) Precip ( " mm )
12:48 am 00:48 Clear 68 20 46 8 46 46 WNW 15 24 29.57 1001 10 16 0.00 0.00
12:53 am 00:53 Clear 68 20 47 8.3 47 47 NW 14 22 29.58 1002 10 16 0.00 0.00
1:53 am 01:53 Clear 64 17.8 47 8.3 54 54 WNW 10 17 29.60 1002 10 16 0.00 0.00
2:53 am 02:53 Clear 59 15 47 8.3 64 64 WNW 7 11 29.60 1003 10 16 0.00 0.00
3:53 am 03:53 Clear 58 14.4 48 8.9 70 70 WNW 8 13 29.60 1003 10 16 0.00 0.00
4:53 am 04:53 Clear 55 12.8 48 8.9 77 77 WNW 7 11 29.62 1003 10 16 0.00 0.00
5:53 am 05:53 Sunny 53 11.7 48 8.9 83 83 WNW 6 9 29.64 1004 10 16 0.00 0.00
6:53 am 06:53 Sunny 57 13.9 48 8.9 72 72 WNW 8 13 29.64 1004 10 16 0.00 0.00
7:53 am 07:53 Sunny 62 16.7 50 10 65 65 NW 6 9 29.64 1004 10 16 0.00 0.00
8:53 am 08:53 Sunny 68 20 51 10.6 55 55 W 6 9 29.64 1004 10 16 0.00 0.00
9:53 am 09:53 Sunny 73 22.8 51 10.6 46 46 VRB 7 11 29.64 1004 10 16 0.00 0.00
10:53 am 10:53 Sunny 78 25.6 52 11.1 40 40 NNW 7 11 29.62 1003 10 16 0.00 0.00
11:53 am 11:53 Sunny 85 29.4 48 8.9 28 28 VRB 3 6 29.62 1003 10 16 0.00 0.00
12:53 pm 12:53 Sunny 89 31.7 47 8.3 23 23 VRB 3 6 29.62 1003 10 16 0.00 0.00
1:22 pm 13:22 Sunny 90 32.2 48 8.9 24 24 WNW 13 20 29.45 997 10 16 0.00 0.00
1:53 pm 13:53 Sunny 91 32.8 45 7.2 20 20 WNW 14 22 29.63 1004 10 16 0.00 0.00
2:53 pm 14:53 Sunny 91 32.8 42 5.6 18 18 NW 14 22 29.64 1004 10 16 0.00 0.00
3:53 pm 15:53 Sunny 93 33.9 41 5 16 16 N 14 22 29.63 1003 10 16 0.00 0.00
4:53 pm 16:53 Sunny 91 32.8 50 10 25 25 NNE 14 22 29.65 1004 10 16 0.00 0.00
5:53 pm 17:53 Sunny 89 31.7 49 9.4 25 25 N 20 31 29.65 1004 10 16 0.00 0.00
6:53 pm 18:53 Sunny 87 30.6 47 8.3 25 25 N 17 28 29.65 1004 10 16 0.00 0.00
7:53 pm 19:53 Sunny 80 26.7 40 4.4 24 24 NNW 22 35 29.69 1005 10 16 0.00 0.00
8:53 pm 20:53 Clear 75 23.9 35 1.7 23 23 NNW 22 35 29.72 1007 10 16 0.00 0.00
9:31 pm 21:31 Mostly Cloudy with Nearby Thunderstorms 71 21.7 38 3.3 30 30 NNW 23 37 29.66 1004 10 16 0.00 0.00
9:46 pm 21:46 Cloudy with Light Rain 69 20.6 39 3.9 33 33 NNW 21 33 29.70 1006 10 16 0.00 0.00
9:53 pm 21:53 Mostly Cloudy with Thunderstorms 69 20.6 39 3.9 33 33 N 16 26 29.78 1009 10 16 0.00 0.00
10:12 pm 22:12 Cloudy 66 18.9 42 5.6 42 42 N 18 30 29.75 1007 10 16 0.01 0.25
10:53 pm 22:53 Cloudy 67 19.4 39 3.9 36 36 N 15 24 29.81 1009 10 16 0.01 0.25
11:53 pm 23:53 Cloudy 66 18.9 40 4.4 39 39 NNW 9 15 29.82 1010 10 16 0.00 0.00

Powered by AerisWeather